This is the latest recevied weather packets stored in our database for station/object KD7JB. If no packets are shown the sender has not sent any weather packets the latest 10 day(s).
| Time | Temp. | Humidity | Pressure | Rain* | Wind** | Luminosity | Snow |
|---|---|---|---|---|---|---|---|
| 1777783550 | 16.67° C | 36% | 1178.2 hPa | 0 mm | - | 0 W/m² | - |
| 1777783248 | 16.67° C | 36% | 1178.2 hPa | 0 mm | - | 0 W/m² | - |
| 1777782943 | 16.67° C | 36% | 1178.2 hPa | 0 mm | - | 0 W/m² | - |
| 1777782640 | 16.67° C | 36% | 1178.3 hPa | 0 mm | - | 0 W/m² | - |
| 1777782337 | 16.67° C | 36% | 1178.4 hPa | 0 mm | - | 0 W/m² | - |
| 1777782033 | 16.67° C | 36% | 1178.2 hPa | 0 mm | - | 0 W/m² | - |
| 1777781730 | 16.67° C | 36% | 1178.2 hPa | 0 mm | - | 0 W/m² | - |
| 1777781428 | 16.67° C | 37% | 1178.2 hPa | 0 mm | - | 0 W/m² | - |
| 1777781125 | 16.67° C | 37% | 1177.9 hPa | 0 mm | - | 0 W/m² | - |
| 1777780822 | 16.67° C | 38% | 1178.1 hPa | 0 mm | - | 0 W/m² | - |
| 1777780519 | 16.67° C | 38% | 1178.1 hPa | 0 mm | - | 0 W/m² | - |
| 1777780217 | 16.67° C | 38% | 1177.9 hPa | 0 mm | - | 0 W/m² | - |
| 1777779914 | 16.67° C | 38% | 1177.8 hPa | 0 mm | - | 0 W/m² | - |
| 1777779611 | 16.11° C | 40% | 1177.6 hPa | 0 mm | - | 0 W/m² | - |
| 1777779308 | 16.11° C | 40% | 1177.8 hPa | 0 mm | - | 0 W/m² | - |
| 1777779006 | 16.11° C | 41% | 1177.9 hPa | 0 mm | - | 0 W/m² | - |
| 1777778704 | 16.67° C | 42% | 1177.6 hPa | 0 mm | - | 1 W/m² | - |
| 1777778402 | 16.67° C | 41% | 1177.6 hPa | 0 mm | - | 2 W/m² | - |
| 1777778099 | 16.67° C | 41% | 1177.5 hPa | 0 mm | - | 3 W/m² | - |
| 1777777796 | 16.67° C | 41% | 1177.4 hPa | 0 mm | - | 5 W/m² | - |
| 1777777492 | 17.22° C | 41% | 1177.4 hPa | 0 mm | - | 8 W/m² | - |
| 1777777189 | 17.22° C | 41% | 1177.5 hPa | 0 mm | - | 10 W/m² | - |
| 1777776886 | 17.22° C | 41% | 1177.6 hPa | 0 mm | - | 14 W/m² | - |
| 1777776583 | 17.78° C | 41% | 1177.4 hPa | 0 mm | - | 18 W/m² | - |
| 1777776280 | 17.78° C | 41% | 1177.5 hPa | 0 mm | - | 23 W/m² | - |
* Rain latest hour (hover to see other rain measurements)
** Current wind speed in m/s (hover to see current wind gust speed)